ENY4048 KRDU-KDCA

Flight info

Callsign ENY4048
Flight time 0h 43m
Altitude 23000
Route BEXGO5 BOUSY WAVES CAPSS4
Aircraft E75L/M-SDE3GILORVW/S

Departure

Time 2026-05-05 12:22
Airport Raleigh-Durham International Airport (KRDU)

Arrival

Time 2026-05-05 13:06
Airport Ronald Reagan Washington National Airport (KDCA)
Time Latitude Longitude Altitude Speed Heading
2026-05-05 11:51 35.87926 -78.79197 389 ft 0 kts 135°
2026-05-05 12:14 35.87939 -78.79214 389 ft 4 kts 126°
2026-05-05 12:15 35.87951 -78.79243 389 ft 4 kts 103°
2026-05-05 12:15 35.87951 -78.79275 389 ft 4 kts 67°
2026-05-05 12:15 35.87943 -78.79288 389 ft 0 kts 45°
2026-05-05 12:18 35.87956 -78.79273 389 ft 7 kts 46°
2026-05-05 12:18 35.88005 -78.79210 389 ft 12 kts 45°
2026-05-05 12:18 35.88072 -78.79129 389 ft 15 kts 45°
2026-05-05 12:18 35.88148 -78.79032 389 ft 17 kts 45°
2026-05-05 12:19 35.88234 -78.79000 389 ft 13 kts 358°
2026-05-05 12:19 35.88314 -78.78932 389 ft 17 kts 44°
2026-05-05 12:19 35.88412 -78.78811 389 ft 23 kts 45°
2026-05-05 12:19 35.88533 -78.78662 390 ft 26 kts 45°
2026-05-05 12:20 35.88660 -78.78504 390 ft 26 kts 45°
2026-05-05 12:20 35.88792 -78.78342 390 ft 28 kts 44°
2026-05-05 12:20 35.88924 -78.78178 389 ft 27 kts 45°
2026-05-05 12:20 35.89057 -78.78012 389 ft 28 kts 44°
2026-05-05 12:21 35.89188 -78.77854 389 ft 20 kts 46°
2026-05-05 12:21 35.89259 -78.77821 389 ft 10 kts 321°
2026-05-05 12:21 35.89304 -78.77889 389 ft 8 kts 276°
2026-05-05 12:21 35.89285 -78.77929 389 ft 0 kts 225°
2026-05-05 12:22 35.89245 -78.77978 389 ft 31 kts 225°
2026-05-05 12:22 35.88916 -78.78384 390 ft 103 kts 225°
2026-05-05 12:22 35.88276 -78.79176 577 ft 144 kts 224°
2026-05-05 12:22 35.87546 -78.80052 1420 ft 148 kts 224°
2026-05-05 12:23 35.86804 -78.80928 2233 ft 153 kts 226°
2026-05-05 12:23 35.86016 -78.81909 2882 ft 167 kts 231°
2026-05-05 12:23 35.85552 -78.83266 3448 ft 187 kts 266°
2026-05-05 12:23 35.86022 -78.84863 3996 ft 218 kts 306°
2026-05-05 12:24 35.87170 -78.86279 4581 ft 246 kts 311°
2026-05-05 12:24 35.88447 -78.87843 5109 ft 270 kts 310°
2026-05-05 12:24 35.89805 -78.89505 5920 ft 279 kts 313°
2026-05-05 12:24 35.91565 -78.90656 6742 ft 298 kts 345°
2026-05-05 12:25 35.93614 -78.90493 7629 ft 306 kts 18°
2026-05-05 12:25 35.95381 -78.89072 8536 ft 304 kts 44°
2026-05-05 12:25 35.96886 -78.87225 9351 ft 307 kts 46°
2026-05-05 12:25 35.98342 -78.85282 10070 ft 310 kts 50°
2026-05-05 12:26 35.99805 -78.83217 10374 ft 328 kts 51°
2026-05-05 12:26 36.01294 -78.80972 10600 ft 347 kts 52°
2026-05-05 12:26 36.02842 -78.78585 10839 ft 363 kts 52°
2026-05-05 12:26 36.04447 -78.76146 11391 ft 368 kts 51°
2026-05-05 12:27 36.06070 -78.73687 12048 ft 369 kts 51°
2026-05-05 12:27 36.07697 -78.71225 12743 ft 371 kts 51°
2026-05-05 12:27 36.09312 -78.68780 13425 ft 373 kts 51°
2026-05-05 12:27 36.10964 -78.66279 14082 ft 376 kts 51°
2026-05-05 12:28 36.12625 -78.63757 14688 ft 380 kts 50°
2026-05-05 12:28 36.14303 -78.61210 15324 ft 383 kts 50°
2026-05-05 12:28 36.15998 -78.58635 15961 ft 387 kts 50°
2026-05-05 12:28 36.17707 -78.56034 16577 ft 390 kts 50°
2026-05-05 12:29 36.19429 -78.53415 17189 ft 394 kts 50°
2026-05-05 12:29 36.21169 -78.50762 17771 ft 399 kts 49°
2026-05-05 12:29 36.22929 -78.48081 18383 ft 403 kts 49°
2026-05-05 12:29 36.24705 -78.45372 18961 ft 407 kts 49°
2026-05-05 12:30 36.26472 -78.42674 19523 ft 411 kts 49°
2026-05-05 12:30 36.28393 -78.40049 20098 ft 412 kts 39°
2026-05-05 12:30 36.30636 -78.37825 20701 ft 413 kts 33°
2026-05-05 12:30 36.32976 -78.35738 21282 ft 416 kts 32°
2026-05-05 12:31 36.35339 -78.33631 21839 ft 420 kts 32°
2026-05-05 12:31 36.37721 -78.31476 22380 ft 424 kts 32°
2026-05-05 12:31 36.40106 -78.29299 22888 ft 427 kts 32°
2026-05-05 12:31 36.42480 -78.27124 23013 ft 419 kts 32°
2026-05-05 12:32 36.44777 -78.25011 22994 ft 404 kts 32°
2026-05-05 12:32 36.47020 -78.22951 22995 ft 400 kts 32°
2026-05-05 12:32 36.49260 -78.20898 22977 ft 400 kts 32°
2026-05-05 12:32 36.51470 -78.18860 22973 ft 400 kts 32°
2026-05-05 12:33 36.53689 -78.16766 22973 ft 400 kts 33°
2026-05-05 12:33 36.55906 -78.14665 22972 ft 401 kts 33°
2026-05-05 12:33 36.58129 -78.12562 23043 ft 401 kts 33°
2026-05-05 12:33 36.60352 -78.10458 23234 ft 398 kts 33°
2026-05-05 12:34 36.62575 -78.08361 23204 ft 401 kts 33°
2026-05-05 12:34 36.64800 -78.06258 23133 ft 400 kts 33°
2026-05-05 12:34 36.66983 -78.04190 23134 ft 398 kts 33°
2026-05-05 12:34 36.69193 -78.02096 23141 ft 399 kts 33°
2026-05-05 12:35 36.71407 -78.00000 23142 ft 399 kts 33°
2026-05-05 12:35 36.73620 -77.97900 23140 ft 399 kts 33°
2026-05-05 12:35 36.75828 -77.95804 23135 ft 399 kts 33°
2026-05-05 12:35 36.78010 -77.93730 23126 ft 399 kts 33°
2026-05-05 12:36 36.80223 -77.91628 23117 ft 399 kts 33°
2026-05-05 12:36 36.82518 -77.89726 23110 ft 394 kts 23°
2026-05-05 12:36 36.84972 -77.88208 23110 ft 392 kts 20°
2026-05-05 12:36 36.87457 -77.86800 23038 ft 392 kts 19°
2026-05-05 12:37 36.89944 -77.85388 23046 ft 392 kts 19°
2026-05-05 12:37 36.92417 -77.83963 23041 ft 392 kts 20°
2026-05-05 12:37 36.94890 -77.82527 23047 ft 392 kts 20°
2026-05-05 12:37 36.97361 -77.81086 23072 ft 392 kts 20°
2026-05-05 12:38 36.99831 -77.79641 23066 ft 392 kts 20°
2026-05-05 12:38 37.02301 -77.78194 23059 ft 392 kts 20°
2026-05-05 12:38 37.04771 -77.76748 23056 ft 392 kts 20°
2026-05-05 12:38 37.07241 -77.75300 23063 ft 392 kts 20°
2026-05-05 12:39 37.09691 -77.73864 23037 ft 393 kts 20°
2026-05-05 12:39 37.12161 -77.72414 23061 ft 392 kts 20°
2026-05-05 12:39 37.14635 -77.70960 23064 ft 392 kts 20°
2026-05-05 12:39 37.17116 -77.69502 23076 ft 392 kts 20°
2026-05-05 12:40 37.19558 -77.68064 23067 ft 392 kts 20°
2026-05-05 12:40 37.22027 -77.66610 23077 ft 392 kts 20°
2026-05-05 12:40 37.24498 -77.65155 23068 ft 392 kts 20°
2026-05-05 12:40 37.26973 -77.63697 23053 ft 392 kts 20°
2026-05-05 12:41 37.29437 -77.62243 23054 ft 392 kts 20°
2026-05-05 12:41 37.31908 -77.60785 23047 ft 392 kts 20°
2026-05-05 12:41 37.34379 -77.59324 23064 ft 392 kts 20°
2026-05-05 12:41 37.36848 -77.57864 23060 ft 392 kts 20°
2026-05-05 12:42 37.39320 -77.56401 23056 ft 393 kts 20°
2026-05-05 12:42 37.41791 -77.54938 23056 ft 392 kts 20°
2026-05-05 12:42 37.44268 -77.53470 23056 ft 392 kts 20°
2026-05-05 12:42 37.46705 -77.52025 23056 ft 392 kts 20°
2026-05-05 12:43 37.49175 -77.50559 23051 ft 393 kts 20°
2026-05-05 12:43 37.51645 -77.49092 23034 ft 393 kts 20°
2026-05-05 12:43 37.54130 -77.47616 22679 ft 395 kts 20°
2026-05-05 12:43 37.56594 -77.46146 22444 ft 389 kts 20°
2026-05-05 12:44 37.59081 -77.44799 22129 ft 383 kts 12°
2026-05-05 12:44 37.61630 -77.43892 21893 ft 380 kts
2026-05-05 12:44 37.64183 -77.43113 21894 ft 377 kts
2026-05-05 12:44 37.66751 -77.42337 21823 ft 380 kts
2026-05-05 12:45 37.69282 -77.41558 21774 ft 379 kts
2026-05-05 12:45 37.71841 -77.40761 21707 ft 379 kts
2026-05-05 12:45 37.74406 -77.39957 21642 ft 379 kts
2026-05-05 12:45 37.76973 -77.39152 21357 ft 381 kts
2026-05-05 12:46 37.79540 -77.38352 21039 ft 378 kts
2026-05-05 12:46 37.82106 -77.37562 20521 ft 378 kts
2026-05-05 12:46 37.84659 -77.36772 19977 ft 375 kts
2026-05-05 12:46 37.87181 -77.35992 19489 ft 371 kts
2026-05-05 12:47 37.89675 -77.35218 19004 ft 368 kts
2026-05-05 12:47 37.92166 -77.34451 18505 ft 366 kts
2026-05-05 12:47 37.94604 -77.33703 17992 ft 364 kts
2026-05-05 12:47 37.97050 -77.32950 17551 ft 361 kts
2026-05-05 12:48 37.99495 -77.32199 17032 ft 361 kts
2026-05-05 12:48 38.01933 -77.31446 16573 ft 360 kts
2026-05-05 12:48 38.04365 -77.30698 16088 ft 359 kts
2026-05-05 12:48 38.06785 -77.29950 15607 ft 357 kts
2026-05-05 12:49 38.09194 -77.29205 15137 ft 355 kts
2026-05-05 12:49 38.11592 -77.28447 14664 ft 352 kts
2026-05-05 12:49 38.13956 -77.27702 14204 ft 348 kts
2026-05-05 12:49 38.16291 -77.26967 13724 ft 344 kts 10°
2026-05-05 12:50 38.18597 -77.26241 13288 ft 338 kts 10°
2026-05-05 12:50 38.20850 -77.25528 12961 ft 330 kts 10°
2026-05-05 12:50 38.23044 -77.24729 12633 ft 325 kts 13°
2026-05-05 12:50 38.25183 -77.23886 12403 ft 320 kts 13°
2026-05-05 12:51 38.27317 -77.23058 12166 ft 322 kts 12°
2026-05-05 12:51 38.29472 -77.22234 11893 ft 323 kts 12°
2026-05-05 12:51 38.31598 -77.21425 11648 ft 322 kts 12°
2026-05-05 12:51 38.33744 -77.20611 11393 ft 321 kts 12°
2026-05-05 12:52 38.35883 -77.19799 11159 ft 320 kts 12°
2026-05-05 12:52 38.38007 -77.18993 11025 ft 318 kts 13°
2026-05-05 12:52 38.40150 -77.18167 10833 ft 319 kts 13°
2026-05-05 12:52 38.42273 -77.17346 10775 ft 318 kts 13°
2026-05-05 12:53 38.44374 -77.16534 10669 ft 321 kts 13°
2026-05-05 12:53 38.46511 -77.15705 10568 ft 321 kts 13°
2026-05-05 12:53 38.48648 -77.14881 10453 ft 321 kts 13°
2026-05-05 12:53 38.50785 -77.14055 10347 ft 321 kts 13°
2026-05-05 12:54 38.55051 -77.12405 10141 ft 320 kts 13°
2026-05-05 12:54 38.57187 -77.11577 9980 ft 320 kts 13°
2026-05-05 12:54 38.59313 -77.10755 9840 ft 318 kts 13°
2026-05-05 12:55 38.61437 -77.09938 9671 ft 319 kts 13°
2026-05-05 12:55 38.63558 -77.09120 9466 ft 317 kts 13°
2026-05-05 12:55 38.65677 -77.08300 9243 ft 317 kts 13°
2026-05-05 12:55 38.67783 -77.07491 8958 ft 316 kts 13°
2026-05-05 12:56 38.69864 -77.06738 8612 ft 313 kts
2026-05-05 12:56 38.71991 -77.06471 8319 ft 304 kts 356°
2026-05-05 12:56 38.74097 -77.06411 7877 ft 305 kts 356°
2026-05-05 12:56 38.76195 -77.06469 7457 ft 297 kts 345°
2026-05-05 12:57 38.78014 -77.07393 7130 ft 281 kts 324°
2026-05-05 12:57 38.79643 -77.08727 6748 ft 276 kts 320°
2026-05-05 12:57 38.81233 -77.10103 6378 ft 274 kts 321°
2026-05-05 12:57 38.82817 -77.11433 6157 ft 268 kts 322°
2026-05-05 12:58 38.83841 -77.12297 6037 ft 264 kts 319°
2026-05-05 12:58 38.85189 -77.13858 5824 ft 261 kts 309°
2026-05-05 12:58 38.86828 -77.16121 5685 ft 260 kts 309°
2026-05-05 12:58 38.87677 -77.17257 5627 ft 261 kts 310°
2026-05-05 12:59 38.88951 -77.18901 5484 ft 256 kts 311°
2026-05-05 12:59 38.90192 -77.20461 5385 ft 243 kts 312°
2026-05-05 12:59 38.91367 -77.21922 5297 ft 234 kts 312°
2026-05-05 13:00 38.93711 -77.24644 4913 ft 220 kts 325°
2026-05-05 13:00 38.95105 -77.25302 4778 ft 212 kts 345°
2026-05-05 13:01 38.98737 -77.22848 3964 ft 215 kts 65°
2026-05-05 13:01 38.98995 -77.20979 3707 ft 211 kts 94°
2026-05-05 13:01 38.98609 -77.19196 3449 ft 205 kts 122°
2026-05-05 13:01 38.97820 -77.17703 3171 ft 201 kts 131°
2026-05-05 13:02 38.96985 -77.16269 2877 ft 199 kts 129°
2026-05-05 13:02 38.96123 -77.14943 2641 ft 193 kts 140°
2026-05-05 13:02 38.95159 -77.13796 2430 ft 182 kts 144°
2026-05-05 13:02 38.94222 -77.12750 2161 ft 175 kts 146°
2026-05-05 13:03 38.93315 -77.11755 1912 ft 164 kts 150°
2026-05-05 13:03 38.92386 -77.11030 1715 ft 151 kts 161°
2026-05-05 13:03 38.91450 -77.10399 1517 ft 156 kts 150°
2026-05-05 13:03 38.90713 -77.09402 1346 ft 160 kts 125°
2026-05-05 13:04 38.90306 -77.08049 1111 ft 160 kts 114°
2026-05-05 13:04 38.89777 -77.06830 839 ft 152 kts 133°
2026-05-05 13:04 38.89129 -77.05840 689 ft 143 kts 133°
2026-05-05 13:04 38.88492 -77.04829 527 ft 146 kts 138°
2026-05-05 13:05 38.87663 -77.04143 359 ft 139 kts 166°
2026-05-05 13:05 38.86738 -77.03930 194 ft 136 kts 177°
2026-05-05 13:05 38.85784 -77.03840 28 ft 135 kts 178°
2026-05-05 13:05 38.85000 -77.03764 21 ft 74 kts 176°
2026-05-05 13:06 38.84628 -77.03724 22 ft 40 kts 176°
2026-05-05 13:06 38.84433 -77.03720 22 ft 15 kts 199°
2026-05-05 13:06 38.84392 -77.03794 22 ft 9 kts 268°
2026-05-05 13:06 38.84436 -77.03843 22 ft 11 kts 352°
2026-05-05 13:07 38.84518 -77.03853 22 ft 13 kts 356°
2026-05-05 13:07 38.84620 -77.03863 22 ft 16 kts 355°
2026-05-05 13:07 38.84739 -77.03875 22 ft 16 kts 356°
2026-05-05 13:07 38.84856 -77.03886 21 ft 18 kts 355°
2026-05-05 13:08 38.84986 -77.03899 21 ft 19 kts 356°
2026-05-05 13:08 38.85126 -77.03911 22 ft 21 kts 354°
2026-05-05 13:08 38.85269 -77.03927 21 ft 21 kts 356°
2026-05-05 13:08 38.85419 -77.03944 22 ft 21 kts 354°
2026-05-05 13:09 38.85548 -77.03955 22 ft 17 kts 353°
2026-05-05 13:09 38.85639 -77.04018 22 ft 13 kts 321°
2026-05-05 13:09 38.85700 -77.04082 22 ft 8 kts 298°
2026-05-05 13:09 38.85690 -77.04139 23 ft 5 kts 231°
2026-05-05 13:10 38.85672 -77.04167 22 ft 3 kts 231°
2026-05-05 13:10 38.85669 -77.04171 22 ft 0 kts 231°